Weather observations for the past three days for
Cairns Army Air Field / Ozark
Imperial (Metric)
Date Time (cdt) Wind (mph) Vis. (mi.) Weather Sky Cond. Temperature (ºF) Relative Humidity Wind Chill (°F) Heat Index (°F) Pressure Precipitation (in)
Air Dwpt 6 hour altimeter (in) sea level (mb) 1 hr 3 hr 6 hr
Max. Min.
17 17:10 E 8 10.00 Fair CLR 89.6 68 49% 93 29.98 1015.1
17 15:55 E 10 10.00 A Few Clouds FEW050 93.2 68 44% 98 30 1015.8
17 14:55 E 12 G 21 10.00 A Few Clouds FEW050 93.2 66.2 41% 96 30.01 1016.1
17 13:55 E 13 10.00 Fair CLR 93.2 68 44% 98 30.03 1016.8
17 11:55 E 9 10.00 Partly Cloudy FEW024 SCT032 89.6 73.4 59% 98 30.06 1017.8
17 10:55 E 9 10.00 Mostly Cloudy SCT018 BKN024 84.2 73.4 70% 91 30.08 1018.5
17 07:55 E 7 10.00 Partly Cloudy SCT012 78.6 72 80% 81 30.06 1017.8
17 06:55 NE 5 10.00 Overcast OVC023 74.1 70.7 74.3 72.9 89% 30.04 1017.2
17 05:55 NE 5 10.00 Mostly Cloudy BKN026 73 70.2 91% 30.03 1016.8
17 04:55 NE 5 10.00 Partly Cloudy FEW028 SCT033 72.9 70 91% 30.04 1017.2
17 03:55 E 5 10.00 A Few Clouds FEW031 73.6 69.8 88% 30.03 1016.9
17 02:55 E 5 10.00 Partly Cloudy SCT032 73.4 69.6 88% 30.03 1016.8
17 01:55 E 6 10.00 Fair CLR 73.8 69.6 87% 30.04 1017.1
17 00:55 NE 5 10.00 Fair CLR 74.5 69.6 78.6 74.5 85% 30.05 1017.4
16 23:55 E 3 10.00 Fair CLR 75.9 69.6 81% 77 30.06 1017.7
16 22:55 SE 5 10.00 Mostly Cloudy FEW060 BKN220 75.9 73.4 92% 76 30.06 1017.8
16 21:55 Calm 10.00 A Few Clouds FEW130 76.5 73.6 91% 77 30.03 1016.7
16 20:55 Calm 10.00 Fair CLR 76.8 73.6 90% 78 30.04 1017.1
16 19:55 S 3 10.00 Fair CLR 77.2 74.3 91% 79 30.02 1016.5
16 18:55 SE 3 10.00 Fair CLR 78.6 73 95 77.4 83% 82 30.03 1016.8 0.01
16 17:55 SW 6 10.00 A Few Clouds FEW210 79 72.9 82% 82 30.02 1016.5
16 16:55 SW 3 10.00 Fair CLR 78.3 73 84% 81 30.03 1016.8
16 15:55 Calm 10.00 Fair CLR 77.7 72.9 85% 80 30.01 1016.2 0.01 0.01
16 14:55 SE 8 10.00 Light Drizzle FEW060 79.2 73 82% 83 30.01 1016.1
16 13:55 SE 10 10.00 Partly Cloudy FEW150 SCT200 94.3 69.6 45% 100 29.99 1015.3
16 12:55 E 9 10.00 Partly Cloudy SCT046 SCT200 93.2 69.3 95 76.8 46% 99 30 1015.7
16 11:55 E 8 10.00 A Few Clouds FEW042 93.6 69.6 46% 99 30.02 1016.4
16 10:55 SE 6 10.00 A Few Clouds FEW036 FEW210 90 71.6 55% 97 30.02 1016.4
16 09:55 E 5 10.00 Fair CLR 88.5 71.8 58% 95 30.04 1017.0
16 08:55 S 6 10.00 A Few Clouds FEW015 85.3 73.9 69% 93 30.04 1017.0
16 07:55 E 5 10.00 Fair CLR 81.7 74.8 80% 88 30.03 1016.7
16 06:55 NE 5 10.00 Fair CLR 76.6 73 77.9 73.4 89% 77 30.01 1016.0
16 05:55 NE 5 10.00 A Few Clouds FEW009 73.9 71.4 92% 30 1015.7
16 04:55 Calm 10.00 Fair CLR 75.2 72.7 92% 74 29.98 1015.0
16 03:55 SE 6 10.00 Fair CLR 74.5 71.6 91% 29.97 1014.7
16 02:55 Calm 10.00 Fair CLR 75.6 72 89% 75 29.95 1014.0
16 01:55 Calm 10.00 Fair CLR 76.1 72.9 90% 76 29.96 1014.3
16 00:55 Calm 10.00 Fair CLR 77.7 72.9 93.4 77.5 85% 80 29.96 1014.3
15 23:55 SW 3 10.00 Fair CLR 79.7 73.2 81% 84 29.96 1014.3
15 22:55 SW 7 10.00 Fair CLR 79.9 72.3 78% 84 29.95 1014.0
15 21:55 S 3 10.00 Fair CLR 83.1 71.4 68% 88 29.95 1014.0
15 20:55 NE 3 10.00 Fair CLR 84.7 65.7 53% 87 29.93 1013.3
15 19:55 E 3 10.00 Fair CLR 88.2 63.5 44% 89 29.92 1013.0
15 18:55 E 6 10.00 Fair CLR 93.6 61.7 98.2 93.6 35% 94 29.9 1012.3
15 17:55 SE 7 10.00 Fair CLR 95.9 63 34% 97 29.9 1012.3
15 16:55 E 6 10.00 A Few Clouds FEW070 96.1 60.4 31% 96 29.91 1012.7
15 15:55 E 8 10.00 A Few Clouds FEW070 97.3 63.3 33% 99 29.92 1013.0
15 14:55 NE 9 10.00 Fair CLR 97.2 61.3 31% 98 29.94 1013.6
15 13:55 NE 7 10.00 A Few Clouds FEW150 FEW180 96.3 65.7 37% 99 29.95 1014.0
15 12:55 NE 7 10.00 A Few Clouds FEW110 FEW140 95 66 95.5 74.7 39% 98 29.97 1014.7
15 11:55 N 5 10.00 Fair CLR 92.8 66.4 42% 96 29.98 1015.0
15 10:55 E 7 10.00 Fair CLR 91.6 69.1 48% 97 29.98 1015.0
15 09:55 SE 3 10.00 Fair CLR 87.4 71.8 60% 94 29.98 1015.0
15 08:55 S 6 10.00 Fair CLR 84.9 71.2 64% 90 29.98 1015.0
15 07:55 E 5 10.00 Fair CLR 81.9 66.6 60% 84 29.97 1014.7
15 06:55 Calm 10.00 Fair CLR 74.5 68.2 75 69.8 81% 29.96 1014.4
15 05:55 E 7 10.00 Fair CLR 70.7 67.6 90% 29.94 1013.7
15 04:55 NE 3 10.00 Fair CLR 70.9 67.1 88% 29.92 1013.0
15 03:55 Calm 10.00 Fair CLR 69.8 66.7 90% 29.91 1012.7
15 02:55 N 3 10.00 Fair CLR 73.2 67.6 83% 29.91 1012.7
15 01:55 Calm 10.00 Fair CLR 74.1 67.8 81% 29.92 1013.0
15 00:55 Calm 10.00 Fair CLR 74.7 67.6 91 74.1 79% 29.93 1013.3
14 23:55 Calm 10.00 Fair CLR 76.6 67.3 73% 78 29.94 1013.7
14 22:55 Calm 10.00 Fair CLR 77.2 66.9 71% 79 29.93 1013.3
14 21:55 Calm 10.00 Fair CLR 80.1 64.9 60% 82 29.92 1013.0
14 20:55 SE 3 10.00 Fair CLR 83.8 65.3 54% 86 29.91 1012.7
14 19:55 E 3 10.00 Fair CLR 87.3 63.9 46% 89 29.89 1012.0
14 18:55 NE 5 10.00 Fair CLR 91.2 62.8 95.4 91.2 39% 92 29.89 1012.0
14 17:55 NE 8 10.00 Fair CLR 93.2 60.6 34% 93 29.88 1011.7
Date Time (cdt) Wind (mph) Vis. (mi.) Weather Sky Cond. Air Dwpt Max. Min. Relative Humidity Wind Chill (°F) Heat Index (°F) altimeter (in) sea level (mb) 1 hr 3 hr 6 hr
6 hour
Temperature (ºF) Pressure Precipitation (in)